{"data":{"norad_id":55397,"epoch":"2026-05-25T04:34:51.684672Z","epoch_age_seconds":68617,"freshness":"FRESH","line1":"1 55397U 23014G   26145.19087598 -.00000106  00000+0 -11181-5 0  9999","line2":"2 55397  69.9988 211.7184 0003416 269.5632  90.5136 14.98331592184003","mean_motion":14.98331592,"eccentricity":0.0003416,"inclination_deg":69.9988,"raan_deg":211.7184,"arg_perigee_deg":269.5632,"mean_anomaly_deg":90.5136,"bstar":-1.1181e-6,"rev_number":18400,"period_min":96.106897010552,"perigee_km":569.67678361029,"apogee_km":574.42515202991,"semimajor_km":6950.1879678201,"source":"CELESTRAK","updated_at":"2026-05-25T13:38:17.792568Z"}}